Hourly Data Report for October 06, 2017

All times are specified in Local Standard Time (LST). Add 1 hour to adjust for Daylight Saving Time where and when it is observed.

MORDEN CDA CS
MANITOBA

49°11'15.500" N
98°05'02.200" W
297.50 m
5021849
71564
XMD

Download Data

Hourly Data (October 2017)
Hourly Data Report for October 6, 2017
Temp Definition
°C
Dew Point Temp Definition
°C
Rel Hum Definition
%
Wind Dir Definition
10's deg

Wind Spd Definition
km/h
Visibility Definition
km
Stn Press Definition
kPa
Hmdx Definition


Wind Chill Definition


Weather Definition


TIME
00:00 4.7 0.6 75 24 9   98.21     LegendNANA
01:00 5.1 0.4 72 24 9   98.19     LegendNANA
02:00 3.8 0.1 77 25 6   98.16     LegendNANA
03:00 4.5 1.2 79 24 11   98.08     LegendNANA
04:00 4.7 0.9 76 23 9   98.03     LegendNANA
05:00 5.0 1.4 78 25 11   97.99     LegendNANA
06:00 5.4 1.0 73 25 17   97.95     LegendNANA
07:00 4.8 1.1 77 25 8   97.87     LegendNANA
08:00 6.9 2.1 71 23 10   97.82     LegendNANA
09:00 10.4 1.9 56 23 10   97.75     LegendNANA
10:00 13.0 2.0 47 23 16   97.70     LegendNANA
11:00 14.9 2.0 42 22 20   97.65     LegendNANA
12:00 16.2 1.9 38 23 21   97.52     LegendNANA
13:00 17.4 1.8 35 23 21   97.39     LegendNANA
14:00 18.2 2.5 35 24 19   97.23     LegendNANA
15:00 18.4 2.5 35 22 18   97.09     LegendNANA
16:00 18.5 3.0 35 22 17   97.01     LegendNANA
17:00 18.0 3.2 37 23 12   96.95     LegendNANA
18:00 15.4 3.6 45 21 7   96.88     LegendNANA
19:00 12.0 3.3 55 18 5   96.80     LegendNANA
20:00 9.8 3.8 67 17 4   96.73     LegendNANA
21:00 10.6 4.2 64 17 9   96.64     LegendNANA
22:00 12.4 5.5 62 20 11   96.56     LegendNANA
23:00 12.9 4.9 58 21 14   96.42     LegendNANA

Notes on Data Quality.

Legend

  • E = Estimated
  • M = Missing
  • NA = Not Available
  • ‡ = Partner data that is not subject to review by the National Climate Archives
Date modified: